AVA3 KMIA-SKBQ

Flight info

Callsign AVA3
Flight time N/A
Altitude 37000
Route GWAVA2 URSUS UP406 BILSI UL795 LENAX UL417 NEFTU UP525 MORGI MORGI1B
Aircraft A320/M-SDE3FGHIRWY/LB1

Departure

Time 2026-05-07 00:39
Airport Miami International Airport (KMIA)

Arrival

Time N/A
Airport Ernesto Cortissoz International Airport (SKBQ)
Time Latitude Longitude Altitude Speed Heading
2026-05-06 23:49 25.79245 -80.27308 15 ft 0 kts 272°
2026-05-07 00:22 25.79244 -80.27303 16 ft 3 kts 269°
2026-05-07 00:22 25.79248 -80.27283 15 ft 3 kts 208°
2026-05-07 00:22 25.79268 -80.27280 16 ft 3 kts 186°
2026-05-07 00:23 25.79282 -80.27277 16 ft 3 kts 260°
2026-05-07 00:23 25.79284 -80.27255 18 ft 3 kts 259°
2026-05-07 00:23 25.79289 -80.27235 17 ft 0 kts 252°
2026-05-07 00:23 25.79282 -80.27234 18 ft 3 kts 189°
2026-05-07 00:24 25.79259 -80.27232 16 ft 2 kts 177°
2026-05-07 00:24 25.79237 -80.27231 15 ft 3 kts 177°
2026-05-07 00:24 25.79213 -80.27230 15 ft 3 kts 177°
2026-05-07 00:24 25.79189 -80.27229 15 ft 3 kts 177°
2026-05-07 00:25 25.79166 -80.27228 15 ft 3 kts 177°
2026-05-07 00:25 25.79142 -80.27226 15 ft 3 kts 177°
2026-05-07 00:25 25.79118 -80.27225 15 ft 3 kts 177°
2026-05-07 00:25 25.79095 -80.27224 15 ft 3 kts 177°
2026-05-07 00:26 25.79071 -80.27223 15 ft 3 kts 177°
2026-05-07 00:26 25.79047 -80.27221 15 ft 3 kts 177°
2026-05-07 00:26 25.79023 -80.27220 15 ft 3 kts 177°
2026-05-07 00:26 25.79000 -80.27219 15 ft 3 kts 177°
2026-05-07 00:27 25.78992 -80.27219 15 ft 0 kts 177°
2026-05-07 00:31 25.78985 -80.27218 15 ft 3 kts 177°
2026-05-07 00:32 25.78942 -80.27232 15 ft 10 kts 216°
2026-05-07 00:32 25.78926 -80.27324 15 ft 15 kts 267°
2026-05-07 00:32 25.78919 -80.27461 15 ft 21 kts 263°
2026-05-07 00:32 25.78890 -80.27608 15 ft 15 kts 257°
2026-05-07 00:33 25.78878 -80.27713 15 ft 14 kts 267°
2026-05-07 00:33 25.78874 -80.27812 15 ft 12 kts 268°
2026-05-07 00:33 25.78871 -80.27900 16 ft 10 kts 268°
2026-05-07 00:33 25.78883 -80.27970 16 ft 9 kts 296°
2026-05-07 00:34 25.78910 -80.28025 17 ft 8 kts 298°
2026-05-07 00:34 25.78934 -80.28073 16 ft 7 kts 299°
2026-05-07 00:34 25.78958 -80.28119 16 ft 8 kts 300°
2026-05-07 00:34 25.78997 -80.28196 17 ft 14 kts 300°
2026-05-07 00:35 25.79057 -80.28313 16 ft 18 kts 299°
2026-05-07 00:35 25.79108 -80.28410 15 ft 12 kts 302°
2026-05-07 00:35 25.79172 -80.28507 15 ft 19 kts 300°
2026-05-07 00:35 25.79247 -80.28653 15 ft 25 kts 299°
2026-05-07 00:36 25.79337 -80.28828 14 ft 28 kts 300°
2026-05-07 00:36 25.79440 -80.29030 15 ft 31 kts 299°
2026-05-07 00:36 25.79537 -80.29225 15 ft 30 kts 300°
2026-05-07 00:36 25.79626 -80.29394 15 ft 22 kts 297°
2026-05-07 00:37 25.79702 -80.29546 15 ft 25 kts 300°
2026-05-07 00:37 25.79794 -80.29723 14 ft 25 kts 299°
2026-05-07 00:37 25.79867 -80.29868 14 ft 18 kts 300°
2026-05-07 00:37 25.79930 -80.29991 14 ft 21 kts 300°
2026-05-07 00:38 25.79994 -80.30114 14 ft 18 kts 301°
2026-05-07 00:38 25.80070 -80.30130 14 ft 8 kts 36°
2026-05-07 00:38 25.80077 -80.30012 13 ft 37 kts 87°
2026-05-07 00:38 25.80100 -80.29458 15 ft 103 kts 87°
2026-05-07 00:39 25.80139 -80.28478 17 ft 153 kts 87°
2026-05-07 00:39 25.80205 -80.27265 584 ft 154 kts 85°
2026-05-07 00:39 25.80223 -80.26088 1243 ft 155 kts 104°
2026-05-07 00:39 25.79671 -80.24999 1626 ft 174 kts 137°
2026-05-07 00:40 25.78696 -80.24058 1937 ft 196 kts 138°
2026-05-07 00:40 25.77620 -80.23021 2279 ft 217 kts 138°
2026-05-07 00:40 25.76427 -80.21863 2780 ft 236 kts 138°
2026-05-07 00:40 25.75131 -80.20600 3281 ft 258 kts 138°
2026-05-07 00:41 25.73620 -80.19468 3993 ft 269 kts 159°
2026-05-07 00:41 25.71749 -80.19128 4763 ft 277 kts 179°
2026-05-07 00:41 25.69802 -80.19058 5630 ft 282 kts 179°
2026-05-07 00:41 25.67816 -80.19008 6460 ft 288 kts 182°
2026-05-07 00:42 25.65803 -80.19242 7232 ft 293 kts 186°
2026-05-07 00:42 25.63754 -80.19474 8058 ft 296 kts 179°
2026-05-07 00:42 25.61706 -80.19213 8866 ft 298 kts 163°
2026-05-07 00:42 25.59797 -80.18370 9663 ft 298 kts 148°
2026-05-07 00:43 25.57992 -80.17175 10305 ft 308 kts 146°
2026-05-07 00:43 25.56086 -80.15906 10537 ft 331 kts 146°
2026-05-07 00:43 25.54038 -80.14545 10747 ft 353 kts 147°
2026-05-07 00:43 25.51908 -80.13135 11231 ft 363 kts 147°
2026-05-07 00:44 25.49734 -80.11703 11851 ft 368 kts 146°
2026-05-07 00:44 25.47511 -80.10243 12506 ft 372 kts 146°
2026-05-07 00:44 25.45276 -80.08777 13142 ft 377 kts 146°
2026-05-07 00:44 25.42993 -80.07279 13794 ft 381 kts 146°
2026-05-07 00:45 25.40695 -80.05769 14363 ft 386 kts 146°
2026-05-07 00:45 25.38372 -80.04240 14922 ft 390 kts 147°
2026-05-07 00:45 25.36060 -80.02721 15464 ft 394 kts 147°
2026-05-07 00:45 25.33687 -80.01161 16017 ft 398 kts 147°
2026-05-07 00:46 25.31293 -79.99590 16541 ft 402 kts 148°
2026-05-07 00:46 25.28861 -79.97995 17081 ft 406 kts 148°
2026-05-07 00:46 25.26420 -79.96392 17604 ft 410 kts 148°
2026-05-07 00:46 25.24006 -79.94755 18114 ft 413 kts 147°
2026-05-07 00:47 25.21575 -79.93039 18579 ft 417 kts 146°
2026-05-07 00:47 25.19123 -79.91271 19010 ft 421 kts 146°
2026-05-07 00:47 25.16662 -79.89489 19436 ft 424 kts 146°
2026-05-07 00:47 25.14192 -79.87709 19857 ft 428 kts 146°
2026-05-07 00:48 25.11672 -79.85906 20289 ft 432 kts 146°
2026-05-07 00:48 25.09155 -79.84116 20714 ft 435 kts 147°
2026-05-07 00:48 25.06601 -79.82309 21137 ft 439 kts 147°
2026-05-07 00:48 25.04020 -79.80486 21548 ft 442 kts 147°
2026-05-07 00:49 25.01416 -79.78651 21943 ft 447 kts 147°
2026-05-07 00:49 24.98770 -79.76790 22333 ft 451 kts 147°
2026-05-07 00:49 24.96129 -79.74930 22743 ft 454 kts 146°
2026-05-07 00:49 24.93445 -79.73036 23155 ft 457 kts 146°
2026-05-07 00:50 24.90754 -79.71139 23559 ft 461 kts 147°
2026-05-07 00:50 24.88038 -79.69225 23909 ft 464 kts 147°
2026-05-07 00:50 24.85359 -79.67333 24259 ft 466 kts 147°
2026-05-07 00:50 24.82615 -79.65393 24620 ft 468 kts 147°
2026-05-07 00:51 24.79860 -79.63449 24976 ft 470 kts 147°
2026-05-07 00:51 24.77097 -79.61500 25332 ft 472 kts 147°
2026-05-07 00:51 24.74312 -79.59538 25687 ft 474 kts 147°
2026-05-07 00:51 24.71527 -79.57582 26042 ft 477 kts 147°
2026-05-07 00:52 24.68762 -79.55644 26388 ft 479 kts 147°
2026-05-07 00:52 24.65953 -79.53672 26748 ft 481 kts 147°
2026-05-07 00:52 24.63100 -79.51670 27102 ft 483 kts 147°
2026-05-07 00:52 24.60271 -79.49685 27451 ft 485 kts 147°
2026-05-07 00:53 24.58389 -79.48365 27672 ft 486 kts 147°
2026-05-07 00:53 24.55516 -79.46352 28008 ft 488 kts 148°
2026-05-07 00:53 24.51701 -79.43677 28437 ft 491 kts 148°
2026-05-07 00:53 24.49746 -79.42303 28660 ft 492 kts 147°
2026-05-07 00:54 24.46892 -79.40297 28976 ft 494 kts 147°
2026-05-07 00:54 24.43995 -79.38262 29294 ft 496 kts 148°
2026-05-07 00:54 24.41070 -79.36213 29605 ft 498 kts 148°
2026-05-07 00:54 24.38136 -79.34165 29911 ft 500 kts 148°
2026-05-07 00:55 24.35213 -79.32129 30284 ft 500 kts 148°
2026-05-07 00:55 24.32261 -79.30078 30644 ft 499 kts 148°
2026-05-07 00:55 24.29331 -79.28036 30979 ft 499 kts 148°
2026-05-07 00:55 24.26418 -79.25977 31308 ft 499 kts 147°
2026-05-07 00:56 24.23512 -79.23892 31640 ft 499 kts 147°
2026-05-07 00:56 24.20625 -79.21802 31966 ft 500 kts 147°
2026-05-07 00:56 24.17755 -79.19720 32297 ft 500 kts 147°
2026-05-07 00:56 24.14851 -79.17617 32634 ft 500 kts 147°
2026-05-07 00:57 24.11945 -79.15519 32967 ft 500 kts 147°
2026-05-07 00:57 24.09035 -79.13430 33305 ft 500 kts 148°
2026-05-07 00:57 24.06115 -79.11347 33643 ft 500 kts 148°
2026-05-07 00:57 24.03190 -79.09292 33980 ft 500 kts 151°
2026-05-07 00:58 24.00080 -79.07593 34281 ft 498 kts 160°
2026-05-07 00:58 23.96811 -79.06410 34571 ft 495 kts 168°
2026-05-07 00:58 23.93431 -79.05678 34902 ft 493 kts 172°
2026-05-07 00:58 23.90065 -79.05016 35213 ft 493 kts 172°
2026-05-07 00:59 23.83322 -79.03683 35828 ft 492 kts 172°
2026-05-07 00:59 23.79950 -79.03014 36123 ft 491 kts 172°
2026-05-07 00:59 23.76639 -79.02360 36410 ft 490 kts 172°
2026-05-07 01:00 23.73277 -79.01699 36690 ft 490 kts 172°
2026-05-07 01:00 23.69924 -79.01042 36957 ft 490 kts 172°
2026-05-07 01:00 23.66562 -79.00381 37054 ft 491 kts 172°
2026-05-07 01:01 23.59844 -78.99045 37078 ft 490 kts 172°
2026-05-07 01:01 23.53134 -78.97700 37076 ft 490 kts 172°
2026-05-07 01:02 23.46417 -78.96372 37076 ft 490 kts 172°
2026-05-07 01:02 23.39702 -78.95056 37076 ft 490 kts 172°
2026-05-07 01:03 23.33036 -78.93755 37071 ft 490 kts 172°
2026-05-07 01:03 23.26328 -78.92438 37079 ft 490 kts 172°
2026-05-07 01:04 23.19760 -78.90457 37082 ft 493 kts 156°
2026-05-07 01:04 23.13961 -78.86519 37079 ft 493 kts 142°
2026-05-07 01:05 23.08516 -78.81984 37077 ft 493 kts 142°
2026-05-07 01:05 23.03051 -78.77469 37078 ft 494 kts 143°
2026-05-07 01:06 22.97579 -78.72951 37081 ft 494 kts 142°
2026-05-07 01:06 22.92120 -78.68433 37092 ft 494 kts 142°
2026-05-07 01:07 22.86664 -78.63911 37085 ft 494 kts 142°
2026-05-07 01:07 22.81195 -78.59398 37084 ft 494 kts 142°
2026-05-07 01:08 22.75728 -78.54887 37083 ft 494 kts 142°
2026-05-07 01:08 22.70279 -78.50354 37083 ft 494 kts 142°
2026-05-07 01:09 22.64830 -78.45813 37083 ft 494 kts 142°
2026-05-07 01:09 22.59417 -78.41302 37084 ft 494 kts 142°
2026-05-07 01:10 22.53973 -78.36770 37083 ft 494 kts 142°
2026-05-07 01:10 22.48519 -78.32242 37084 ft 494 kts 142°
2026-05-07 01:11 22.43080 -78.27715 37083 ft 494 kts 142°
2026-05-07 01:11 22.37642 -78.23181 37084 ft 494 kts 142°
2026-05-07 01:12 22.32197 -78.18656 37080 ft 493 kts 142°
2026-05-07 01:12 22.26762 -78.14129 37081 ft 493 kts 142°
2026-05-07 01:13 22.21334 -78.09613 37085 ft 493 kts 142°
2026-05-07 01:13 22.15895 -78.05104 37087 ft 493 kts 142°
2026-05-07 01:14 22.10459 -78.00605 37087 ft 492 kts 142°
2026-05-07 01:14 22.05065 -77.96139 37084 ft 492 kts 142°
2026-05-07 01:15 21.99626 -77.91644 37078 ft 492 kts 142°
2026-05-07 01:15 21.94193 -77.87153 37085 ft 492 kts 142°
2026-05-07 01:16 21.88335 -77.83377 37081 ft 492 kts 159°
2026-05-07 01:16 21.81800 -77.81277 37082 ft 491 kts 166°
2026-05-07 01:17 21.75205 -77.79363 37078 ft 491 kts 166°
2026-05-07 01:17 21.68612 -77.77443 37081 ft 491 kts 166°
2026-05-07 01:18 21.62019 -77.75524 37086 ft 490 kts 166°
2026-05-07 01:18 21.55430 -77.73612 37091 ft 490 kts 166°
2026-05-07 01:19 21.48894 -77.71713 37092 ft 490 kts 166°
2026-05-07 01:19 21.42320 -77.69808 37092 ft 489 kts 166°
2026-05-07 01:20 21.35745 -77.67911 37091 ft 489 kts 166°
2026-05-07 01:20 21.29171 -77.66016 37083 ft 489 kts 165°
2026-05-07 01:21 21.22585 -77.64118 37086 ft 489 kts 165°
2026-05-07 01:21 21.16010 -77.62221 37085 ft 489 kts 165°
2026-05-07 01:22 21.09426 -77.60318 37083 ft 489 kts 165°
2026-05-07 01:22 21.02849 -77.58425 37088 ft 490 kts 165°
2026-05-07 01:23 20.96267 -77.56533 37084 ft 490 kts 165°
2026-05-07 01:23 20.89727 -77.54654 37083 ft 490 kts 165°
2026-05-07 01:24 20.83143 -77.52759 37081 ft 490 kts 165°
2026-05-07 01:24 20.76565 -77.50864 37074 ft 490 kts 165°
2026-05-07 01:25 20.69979 -77.48976 37075 ft 490 kts 165°
2026-05-07 01:25 20.63394 -77.47098 37069 ft 490 kts 165°
2026-05-07 01:26 20.56790 -77.45261 37069 ft 490 kts 169°
2026-05-07 01:26 20.50021 -77.44813 37064 ft 488 kts 183°
2026-05-07 01:27 20.43239 -77.44998 37062 ft 488 kts 182°
2026-05-07 01:27 20.36441 -77.45171 37062 ft 488 kts 182°
2026-05-07 01:28 20.29646 -77.45337 37058 ft 488 kts 182°
2026-05-07 01:28 20.22844 -77.45514 37061 ft 489 kts 182°
2026-05-07 01:29 20.16088 -77.45696 37063 ft 489 kts 182°
2026-05-07 01:29 20.09283 -77.45873 37064 ft 489 kts 182°
2026-05-07 01:30 20.02483 -77.46042 37066 ft 489 kts 182°
2026-05-07 01:30 19.95670 -77.46212 37063 ft 489 kts 182°
2026-05-07 01:31 19.88869 -77.46383 37062 ft 489 kts 182°
2026-05-07 01:31 19.82060 -77.46560 37064 ft 489 kts 182°
2026-05-07 01:32 19.75252 -77.46728 37064 ft 489 kts 182°
2026-05-07 01:32 19.68454 -77.46902 37061 ft 489 kts 182°
2026-05-07 01:33 19.61694 -77.47077 37056 ft 489 kts 182°
2026-05-07 01:33 19.54885 -77.47249 37056 ft 489 kts 182°
2026-05-07 01:34 19.48098 -77.46956 37057 ft 490 kts 169°
2026-05-07 01:34 19.41532 -77.45053 37054 ft 489 kts 163°
2026-05-07 01:35 19.35002 -77.42997 37046 ft 490 kts 163°
2026-05-07 01:35 19.28455 -77.40956 37053 ft 490 kts 163°
2026-05-07 01:36 19.21924 -77.38911 37053 ft 489 kts 163°
2026-05-07 01:36 19.15436 -77.36873 37055 ft 489 kts 163°
2026-05-07 01:37 19.08906 -77.34832 37055 ft 489 kts 163°
2026-05-07 01:37 19.02378 -77.32787 37052 ft 489 kts 163°
2026-05-07 01:38 18.95848 -77.30748 37057 ft 489 kts 163°
2026-05-07 01:38 18.89326 -77.28710 37053 ft 488 kts 163°
2026-05-07 01:39 18.82805 -77.26681 37058 ft 488 kts 163°
2026-05-07 01:39 18.76294 -77.24654 37056 ft 488 kts 163°
2026-05-07 01:40 18.69786 -77.22625 37058 ft 488 kts 162°
2026-05-07 01:40 18.63271 -77.20589 37053 ft 488 kts 162°
2026-05-07 01:41 18.56755 -77.18559 37049 ft 488 kts 162°
2026-05-07 01:41 18.50284 -77.16546 37058 ft 488 kts 162°
2026-05-07 01:42 18.43766 -77.14515 37059 ft 488 kts 162°
2026-05-07 01:42 18.37241 -77.12490 37056 ft 489 kts 162°
2026-05-07 01:43 18.30723 -77.10470 37064 ft 488 kts 162°
2026-05-07 01:43 18.24200 -77.08448 37059 ft 488 kts 162°
2026-05-07 01:44 18.17678 -77.06431 37049 ft 488 kts 162°
2026-05-07 01:44 18.11200 -77.04429 37043 ft 488 kts 162°
2026-05-07 01:45 18.04692 -77.02410 37043 ft 488 kts 162°
2026-05-07 01:45 17.98189 -77.00396 37037 ft 488 kts 162°
2026-05-07 01:46 17.92754 -76.98723 37033 ft 488 kts 162°
2026-05-07 01:46 17.85145 -76.96386 37034 ft 487 kts 162°
2026-05-07 01:47 17.79725 -76.94717 37040 ft 487 kts 162°
2026-05-07 01:47 17.73219 -76.92711 37032 ft 487 kts 162°
2026-05-07 01:48 17.66710 -76.90711 37034 ft 487 kts 162°
2026-05-07 01:48 17.60201 -76.88710 37027 ft 487 kts 162°
2026-05-07 01:49 17.53697 -76.86713 37035 ft 487 kts 162°
2026-05-07 01:49 17.47188 -76.84714 37030 ft 488 kts 162°
2026-05-07 01:50 17.40699 -76.82725 37033 ft 488 kts 162°
2026-05-07 01:50 17.34172 -76.80725 37035 ft 488 kts 162°
2026-05-07 01:51 17.27658 -76.78728 37032 ft 488 kts 162°
2026-05-07 01:51 17.21126 -76.76732 37044 ft 488 kts 162°
2026-05-07 01:52 17.14614 -76.74747 37044 ft 487 kts 162°
2026-05-07 01:52 17.08108 -76.72761 37041 ft 487 kts 162°
2026-05-07 01:53 17.01607 -76.70773 37044 ft 487 kts 162°
2026-05-07 01:53 16.95144 -76.68796 37044 ft 487 kts 162°
2026-05-07 01:54 16.88647 -76.66815 37046 ft 486 kts 162°
2026-05-07 01:54 16.82154 -76.64840 37047 ft 486 kts 162°
2026-05-07 01:55 16.75659 -76.62862 37051 ft 485 kts 162°
2026-05-07 01:55 16.69183 -76.60889 37044 ft 485 kts 162°
2026-05-07 01:56 16.62703 -76.58921 37041 ft 485 kts 162°
2026-05-07 01:56 16.56222 -76.56952 37048 ft 484 kts 162°
2026-05-07 01:57 16.49805 -76.55004 37046 ft 483 kts 162°
2026-05-07 01:57 16.43344 -76.53037 37045 ft 483 kts 162°
2026-05-07 01:58 16.36907 -76.51083 37043 ft 482 kts 162°
2026-05-07 01:58 16.30437 -76.49137 37039 ft 482 kts 162°
2026-05-07 01:59 16.23992 -76.47187 37032 ft 482 kts 162°
2026-05-07 01:59 16.17558 -76.45234 37046 ft 481 kts 162°
2026-05-07 02:00 16.11129 -76.43289 37041 ft 481 kts 162°
2026-05-07 02:00 16.04748 -76.41355 37041 ft 480 kts 162°
2026-05-07 02:01 15.98325 -76.39414 37043 ft 480 kts 162°
2026-05-07 02:01 15.91907 -76.37477 37039 ft 480 kts 162°
2026-05-07 02:02 15.85494 -76.35547 37041 ft 479 kts 162°
2026-05-07 02:02 15.79102 -76.33619 37040 ft 478 kts 162°
2026-05-07 02:03 15.72708 -76.31690 37039 ft 478 kts 162°
2026-05-07 02:03 15.66318 -76.29770 37033 ft 478 kts 162°
2026-05-07 02:04 15.59936 -76.27856 37030 ft 477 kts 161°
2026-05-07 02:04 15.53552 -76.25931 37031 ft 477 kts 162°
2026-05-07 02:05 15.47235 -76.24032 37032 ft 476 kts 162°
2026-05-07 02:05 15.40875 -76.22121 37032 ft 475 kts 162°
2026-05-07 02:06 15.34524 -76.20216 37029 ft 474 kts 162°
2026-05-07 02:06 15.28184 -76.18310 37024 ft 474 kts 161°
2026-05-07 02:07 15.21841 -76.16414 37024 ft 474 kts 162°
2026-05-07 02:07 15.12345 -76.13569 37024 ft 474 kts 162°
2026-05-07 02:08 15.06004 -76.11674 37002 ft 474 kts 161°
2026-05-07 02:08 14.99685 -76.09781 37012 ft 474 kts 161°
2026-05-07 02:09 14.93361 -76.07854 37008 ft 474 kts 161°
2026-05-07 02:09 14.87070 -76.05906 37007 ft 474 kts 161°
2026-05-07 02:10 14.80754 -76.03950 37001 ft 474 kts 161°
2026-05-07 02:10 14.74440 -76.02009 37009 ft 474 kts 162°
2026-05-07 02:11 14.68122 -76.00073 37001 ft 474 kts 161°
2026-05-07 02:11 14.61789 -75.98132 37006 ft 474 kts 161°
2026-05-07 02:12 14.55465 -75.96199 36999 ft 474 kts 161°
2026-05-07 02:12 14.49144 -75.94260 37004 ft 473 kts 162°
2026-05-07 02:13 14.42831 -75.92316 36992 ft 474 kts 162°
2026-05-07 02:13 14.36550 -75.90384 36999 ft 474 kts 162°
2026-05-07 02:14 14.30224 -75.88446 36993 ft 474 kts 161°
2026-05-07 02:14 14.23891 -75.86525 37001 ft 474 kts 162°
2026-05-07 02:15 14.17560 -75.84600 36996 ft 474 kts 161°
2026-05-07 02:15 14.11232 -75.82663 36997 ft 474 kts 162°
2026-05-07 02:16 14.04910 -75.80726 36992 ft 474 kts 161°
2026-05-07 02:16 13.98580 -75.78788 36997 ft 474 kts 162°
2026-05-07 02:17 13.92250 -75.76860 36983 ft 475 kts 162°
2026-05-07 02:17 13.85942 -75.74943 36989 ft 475 kts 162°
2026-05-07 02:18 13.79604 -75.73013 36992 ft 475 kts 162°
2026-05-07 02:18 13.73264 -75.71083 36976 ft 475 kts 162°
2026-05-07 02:19 13.66920 -75.69155 36986 ft 476 kts 162°
2026-05-07 02:19 13.60568 -75.67217 36971 ft 476 kts 162°
2026-05-07 02:20 13.54224 -75.65288 36978 ft 476 kts 162°
2026-05-07 02:20 13.47857 -75.63358 36979 ft 476 kts 162°
2026-05-07 02:21 13.41502 -75.61432 36987 ft 476 kts 162°
2026-05-07 02:21 13.35134 -75.59490 36971 ft 477 kts 162°
2026-05-07 02:22 13.28775 -75.57566 36976 ft 476 kts 162°
2026-05-07 02:22 13.22449 -75.55648 36974 ft 477 kts 163°
2026-05-07 02:23 13.16085 -75.53715 36977 ft 477 kts 162°
2026-05-07 02:23 13.09712 -75.51788 36977 ft 477 kts 163°
2026-05-07 02:24 13.03342 -75.49860 36984 ft 477 kts 163°
2026-05-07 02:24 12.96967 -75.47944 36977 ft 476 kts 163°
2026-05-07 02:25 12.90613 -75.46023 36948 ft 477 kts 163°
2026-05-07 02:25 12.87432 -75.45060 36706 ft 477 kts 163°
2026-05-07 02:25 12.84248 -75.44095 36459 ft 476 kts 163°
2026-05-07 02:26 12.81075 -75.43133 36215 ft 475 kts 162°
2026-05-07 02:26 12.77950 -75.42184 35972 ft 474 kts 162°
2026-05-07 02:26 12.74780 -75.41224 35732 ft 476 kts 161°
2026-05-07 02:26 12.71588 -75.40262 35497 ft 479 kts 163°
2026-05-07 02:27 12.68390 -75.39300 35264 ft 478 kts 163°
2026-05-07 02:27 12.65202 -75.38345 35027 ft 477 kts 162°
2026-05-07 02:27 12.62015 -75.37388 34795 ft 478 kts 162°
2026-05-07 02:27 12.58821 -75.36424 34566 ft 480 kts 162°
2026-05-07 02:28 12.55620 -75.35457 34339 ft 480 kts 161°
2026-05-07 02:28 12.52422 -75.34492 34115 ft 478 kts 161°
2026-05-07 02:28 12.49227 -75.33528 33879 ft 479 kts 162°
2026-05-07 02:28 12.46021 -75.32563 33615 ft 480 kts 161°
2026-05-07 02:29 12.42811 -75.31599 33366 ft 481 kts 160°
2026-05-07 02:29 12.39600 -75.30633 33116 ft 481 kts 162°
2026-05-07 02:29 12.36425 -75.29678 32865 ft 482 kts 163°
2026-05-07 02:29 12.33209 -75.28710 32615 ft 484 kts 161°
2026-05-07 02:30 12.29976 -75.27739 32371 ft 484 kts 161°
2026-05-07 02:30 12.26747 -75.26769 32126 ft 484 kts 162°
2026-05-07 02:30 12.23517 -75.25797 31880 ft 484 kts 161°
2026-05-07 02:30 12.20283 -75.24822 31645 ft 485 kts 161°
2026-05-07 02:31 12.17041 -75.23844 31404 ft 486 kts 161°
2026-05-07 02:31 12.13799 -75.22866 31171 ft 486 kts 162°
2026-05-07 02:31 12.10557 -75.21890 30938 ft 486 kts 161°
2026-05-07 02:31 12.07309 -75.20916 30422 ft 487 kts 161°
2026-05-07 02:32 12.04032 -75.19933 29199 ft 495 kts 161°
2026-05-07 02:32 12.00745 -75.18944 28475 ft 490 kts 161°
2026-05-07 02:32 11.97488 -75.17968 27714 ft 485 kts 161°
2026-05-07 02:32 11.94256 -75.17001 26971 ft 481 kts 161°
2026-05-07 02:33 11.91057 -75.16042 26240 ft 477 kts 161°
2026-05-07 02:33 11.87885 -75.15090 25519 ft 474 kts 161°
2026-05-07 02:33 11.84724 -75.14141 24802 ft 472 kts 161°